Weather Roundup
Issued by NWS Corpus Christi, TX

Home | Current Version | Previous Version | Text Only | Print | Product List | Glossary On
Versions: 1 2 3 4 5 6 7 8 9 10 11 12 13 14 15 16 17 18 19 20 21 22 23 24 25 26 27 28 29 30 31 32 33 34 35 36 37 38 39 40 41 42 43 44 45 46 47 48 49 50
000
ASUS44 KCRP 241711
HRRCRP

SOUTH TEXAS REGIONAL WEATHER ROUNDUP
NATIONAL WEATHER SERVICE CORPUS CHRISTI TX
1200 PM CDT SUN SEP 24 2017


TXZ229>244-241800-
...CORPUS CHRISTI AREA OBSERVATIONS...

CITY           SKY/WX    TMP DP  RH WIND       PRES   REMARKS
CORPUS CHRISTI MOSUNNY   91  72  53 SE13      29.85S HX  98
NAS CORPUS CHR MOSUNNY   90  76  63 SE13      29.85S HX 101
ROCKPORT       SUNNY     87  74  64 SE13      29.86S HX  95
KINGSVILLE ARP PTSUNNY   89  74  59 E5        29.84F HX  98
KINGSVILLE NAS MOSUNNY   91  73  55 SE10G20   29.83F HX  99
ALICE          MOSUNNY   90  68  48 SE10      29.83F HX  94
$$

...VICTORIA AREA OBSERVATIONS...

CITY           SKY/WX    TMP DP  RH WIND       PRES   REMARKS
PORT LAVACA    MOSUNNY   87  74  66 SE18      29.87F HX  95
VICTORIA       PTSUNNY   86  74  67 MISG      29.87F HX  94
BEEVILLE       PTSUNNY   88  66  48 SE12G17   29.86F HX  90
PLEASANTON     MOSUNNY   87  68  52 SE7       29.88S HX  91
SAN ANTONIO    PTSUNNY   87  69  54 SE15      29.90F HX  91
$$

...LAREDO AREA OBSERVATIONS...

CITY           SKY/WX    TMP DP  RH WIND       PRES   REMARKS
LAREDO         CLOUDY    89  69  51 S12       29.84S HX  93
COTULLA        MOSUNNY   88  68  51 SE10      29.85F HX  91
DEL RIO        CLOUDY    79  72  79 SE13      29.86F
MCALLEN        PTSUNNY   89  73  59 S13       29.83S HX  97
HEBBRONVILLE   MOSUNNY   89  66  46 SE9G17    29.85S HX  91
$$

...OTHER TEXAS OBSERVATIONS...

CITY           SKY/WX    TMP DP  RH WIND       PRES   REMARKS
BROWNSVILLE    MOSUNNY   90  74  59 SE14      29.83F HX  99
HOUSTON        MOSUNNY   86  73  65 SE10      29.91F HX  93
COL. STATION   MOSUNNY   85  71  63 SE10      29.93S HX  90
AUSTIN         MOSUNNY   87  72  60 SE14      29.90F HX  93
WACO           PTSUNNY   86  69  56 S10       29.93F HX  90
FORT WORTH     PTSUNNY   85  69  58 SE15G22   29.94S
WICHITA FALLS  PTSUNNY   85  65  51 S13G20    29.90F
LUBBOCK        CLOUDY    69  66  90 S14       29.93S
EL PASO        MOSUNNY   79  45  29 VRB3      29.91S
$$

...MARINE OBSERVATIONS...

STATION/POSITION TIME  SKY/WX   TEMP    WIND        PRES    VSBY  WAVE   SWELL
                                AIR SEA DIR/SP/G                  HT/PER HT/PER
                 (UTC)          (F)     (DEG/KT/KT) (MB)    (MI)  (FT/S) (FT/S)
PORT ARANSAS     NOT AVBL
BUOY 90 E PORT A 1650            83 84   90/ 10/ 12 1011.8S         3/ 6   2/ 6
BUOY 200 E PT IS 1650            84 85  130/  8/ 10 1011.5F         2/ 5   2/ 5
BUOY 15 E GALVES 1550            83 83  110/ 10/ 12 1012.7          2/ 5   2/ 5
$$



USA.gov is the U.S. government's official web portal to all federal, state and local government web resources and services.